EW8576 Weather Reports


Display with metric or nautical units.
time (UTC)temp
F
wind
direction
speed
MPH
gust
MPH
rain 1hr
in
rain 24hr
in
rain mn
in
humidity
%
barometer
mb
20260904215943 84 59 0.0 4.0 0.00 0.00 0.00 36 1008.1
20260904215436 84 59 0.0 4.0 0.00 0.00 0.00 37 1008.1
20260904215158 84 59 0.0 4.0 0.00 0.00 0.00 37 1008.0
20260904214436 84 59 1.0 5.0 0.00 0.00 0.00 37 1008.1
20260904213936 84 59 1.0 6.0 0.00 0.00 0.00 38 1008.0
20260904213436 84 57 1.0 6.0 0.00 0.00 0.00 38 1008.0
20260904212936 84 58 1.0 5.0 0.00 0.00 0.00 37 1008.0
20260904212659 84 58 1.0 5.0 0.00 0.00 0.00 37 1007.9
20260904211934 85 57 2.0 6.0 0.00 0.00 0.00 38 1007.9
20260904211434 84 61 1.0 6.0 0.00 0.00 0.00 37 1007.9
20260904210934 84 321 1.0 4.0 0.00 0.00 0.00 38 1008.0
20260904210434 85 320 1.0 4.0 0.00 0.00 0.00 37 1008.1
20260904205932 85 306 2.0 5.0 0.00 0.00 0.00 39 1008.1
20260904205432 85 74 2.0 5.0 0.00 0.00 0.00 38 1008.1
20260904205157 85 88 1.0 7.0 0.00 0.00 0.00 38 1008.3
20260904204430 85 88 3.0 8.0 0.00 0.00 0.00 37 1008.3
20260904203929 85 65 4.0 8.0 0.00 0.00 0.00 38 1008.3
20260904203430 85 74 2.0 8.0 0.00 0.00 0.00 37 1008.3
20260904202930 85 74 1.0 5.0 0.00 0.00 0.00 37 1008.2
20260904202646 85 58 1.0 5.0 0.00 0.00 0.00 37 1008.2
20260904201926 85 58 1.0 4.0 0.00 0.00 0.00 36 1008.3
20260904201426 84 58 1.0 4.0 0.00 0.00 0.00 37 1008.3
20260904200926 83 57 0.0 4.0 0.00 0.00 0.00 32 1008.4
20260904200426 83 58 1.0 4.0 0.00 0.00 0.00 37 1008.3
20260904195925 83 58 1.0 5.0 0.00 0.00 0.00 35 1008.3
20260904195426 83 58 0.0 5.0 0.00 0.00 0.00 35 1008.3
20260904194926 83 52 0.0 0.0 0.00 0.00 0.00 34 1008.4
20260904194426 83 52 1.0 7.0 0.00 0.00 0.00 34 1008.4
20260904193926 83 51 3.0 9.0 0.00 0.00 0.00 37 1008.4
20260904193422 85 53 3.0 9.0 0.00 0.00 0.00 37 1008.4
20260904192922 85 68 1.0 6.0 0.00 0.00 0.00 35 1008.5
20260904192422 85 269 2.0 6.0 0.00 0.00 0.00 37 1008.5
20260904191922 84 264 3.0 6.0 0.00 0.00 0.00 37 1008.5
20260904191422 84 41 1.0 5.0 0.00 0.00 0.00 36 1008.5
20260904190922 84 51 1.0 6.0 0.00 0.00 0.00 35 1008.5
20260904190422 84 51 2.0 8.0 0.00 0.00 0.00 35 1008.6
20260904185922 84 56 2.0 8.0 0.00 0.00 0.00 36 1008.6
20260904185647 83 305 2.0 7.0 0.00 0.00 0.00 35 1008.7
20260904184918 83 281 1.0 7.0 0.00 0.00 0.00 36 1008.7
20260904184419 83 55 1.0 7.0 0.00 0.00 0.00 34 1008.9
20260904183918 82 46 3.0 8.0 0.00 0.00 0.00 32 1009.0
20260904183418 82 50 4.0 10.0 0.00 0.00 0.00 33 1009.1
20260904182918 82 49 3.0 11.0 0.00 0.00 0.00 35 1009.1
20260904182418 82 65 2.0 11.0 0.00 0.00 0.00 34 1009.0
20260904181918 82 40 2.0 6.0 0.00 0.00 0.00 32 1009.1
20260904181650 82 44 2.0 7.0 0.00 0.00 0.00 33 1009.0
20260904181139 82 50 2.0 8.0 0.00 0.00 0.00 34 1009.1
20260904180635 83 58 3.0 8.0 0.00 0.00 0.00 31 1009.1
20260904175914 82 61 4.0 8.0 0.00 0.00 0.00 33 1009.2
20260904175414 82 62 5.0 10.0 0.00 0.00 0.00 32 1009.2
20260904175130 83 53 6.0 13.0 0.00 0.00 0.00 32 1009.1
20260904174414 83 55 4.0 13.0 0.00 0.00 0.00 33 1009.1
20260904173914 83 292 2.0 5.0 0.00 0.00 0.00 28 1009.2
20260904173413 83 286 3.0 9.0 0.00 0.00 0.00 31 1009.1
20260904173134 83 269 4.0 10.0 0.00 0.00 0.00 31 1009.2
20260904172413 83 70 4.0 10.0 0.00 0.00 0.00 29 1009.1
20260904171914 83 55 4.0 10.0 0.00 0.00 0.00 27 1009.2
20260904171414 83 301 3.0 8.0 0.00 0.00 0.00 27 1009.1
20260904170913 83 69 3.0 8.0 0.00 0.00 0.00 28 1009.1
20260904170642 82 67 4.0 10.0 0.00 0.00 0.00 28 1009.1
20260904170136 83 305 3.0 10.0 0.00 0.00 0.00 27 1009.1
20260904165631 83 52 3.0 8.0 0.00 0.00 0.00 14 1009.2
20260904164912 82 50 3.0 8.0 0.00 0.00 0.00 27 1009.4
20260904164412 82 51 3.0 9.0 0.00 0.00 0.00 22 1009.2
20260904164130 82 47 5.0 13.0 0.00 0.00 0.00 18 1009.3
20260904163406 81 65 6.0 13.0 0.00 0.00 0.00 22 1009.3
20260904162904 81 62 4.0 10.0 0.00 0.00 0.00 20 1009.4
20260904162403 81 51 4.0 9.0 0.00 0.00 0.00 12 1009.4
20260904161902 81 97 3.0 9.0 0.00 0.00 0.00 19 1009.4
20260904161356 81 74 2.0 8.0 0.00 0.00 0.00 12 1009.6
20260904160851 80 301 3.0 7.0 0.00 0.00 0.00 16 1009.7
20260904160604 80 304 3.0 7.0 0.00 0.00 0.00 14 1009.7
20260904155838 80 312 4.0 9.0 0.00 0.00 0.00 13 1009.7
20260904155333 79 326 4.0 9.0 0.00 0.00 0.00 10 1009.7
20260904154828 80 290 3.0 9.0 0.00 0.00 0.00 16 1009.6
20260904154321 80 5 4.0 10.0 0.00 0.00 0.00 8 1009.8
20260904154040 80 68 6.0 14.0 0.00 0.00 0.00 4 1009.9
20260904153309 80 93 7.0 14.0 0.00 0.00 0.00 1 1009.8
20260904152803 80 32 4.0 14.0 0.00 0.00 0.00 1 1009.9
20260904152256 80 57 3.0 6.0 0.00 0.00 0.00 1 1009.9
20260904151751 80 57 2.0 6.0 0.00 0.00 0.00 1 1010.0
20260904151252 79 54 2.0 6.0 0.00 0.00 0.00 1 1010.0
20260904150751 79 52 1.0 5.0 0.00 0.00 0.00 1 1010.0
20260904150251 79 54 2.0 7.0 0.00 0.00 0.00 1 1010.3
20260904150013 79 56 4.0 10.0 0.00 0.00 0.00 1 1010.4
20260904145252 79 342 4.0 10.0 0.00 0.00 0.00 1 1010.4
20260904144752 79 62 4.0 10.0 0.00 0.00 0.00 1 1010.1
20260904144252 80 65 3.0 10.0 0.00 0.00 0.00 1 1010.1
20260904143751 79 61 2.0 6.0 0.00 0.00 0.00 1 1010.2
20260904143252 78 62 2.0 6.0 0.00 0.00 0.00 1 1010.4
20260904142751 77 289 1.0 5.0 0.00 0.00 0.00 1 1010.3
20260904142251 76 289 0.0 5.0 0.00 0.00 0.00 1 1010.2
20260904142017 76 281 0.0 1.0 0.00 0.00 0.00 1 1010.3
20260904141252 76 300 0.0 2.0 0.00 0.00 0.00 1 1010.3
20260904140751 75 300 1.0 5.0 0.00 0.00 0.00 1 1010.2
20260904140249 75 300 2.0 5.0 0.00 0.00 0.00 1 1010.2
20260904135749 75 295 2.0 5.0 0.00 0.00 0.00 1 1010.2
20260904135243 75 294 2.0 5.0 0.00 0.00 0.00 1 1010.1
20260904134738 75 294 2.0 5.0 0.00 0.00 0.00 1 1010.0
20260904134230 75 288 1.0 4.0 0.00 0.00 0.00 1 1009.9
20260904133725 74 279 0.0 4.0 0.00 0.00 0.00 1 1009.9
20260904133219 74 279 1.0 5.0 0.00 0.00 0.00 1 1010.0
20260904132713 73 279 1.0 5.0 0.00 0.00 0.00 1 1010.0
20260904132206 72 271 0.0 2.0 0.00 0.00 0.00 1 1010.0
20260904131925 72 271 1.0 2.0 0.00 0.00 0.00 1 1010.0
20260904131155 71 271 1.0 2.0 0.00 0.00 0.00 1 1009.9
20260904130649 72 271 1.0 4.0 0.00 0.00 0.00 1 1010.0
20260904130143 71 269 0.0 4.0 0.00 0.00 0.00 1 1010.0
20260904125637 71 265 0.0 2.0 0.00 0.00 0.00 1 1010.1
20260904125131 71 264 0.0 2.0 0.00 0.00 0.00 1 1010.1
20260904124625 70 264 0.0 1.0 0.00 0.00 0.00 1 1010.2
20260904124118 70 264 0.0 5.0 0.00 0.00 0.00 1 1010.1
20260904123613 70 264 1.0 5.0 0.00 0.00 0.00 1 1010.1
20260904123107 70 264 1.0 5.0 0.00 0.00 0.00 1 1010.1
20260904122601 70 265 1.0 5.0 0.00 0.00 0.00 1 1010.1
20260904122056 70 266 0.0 5.0 0.00 0.00 0.00 1 1010.0
20260904121549 70 266 0.0 0.0 0.00 0.00 0.00 1 1010.1
20260904121043 69 266 0.0 0.0 0.00 0.00 0.00 1 1010.0
20260904120537 69 266 0.0 0.0 0.00 0.00 0.00 1 1009.9
20260904120031 69 266 0.0 0.0 0.00 0.00 0.00 1 1009.8
20260904115747 69 266 0.0 0.0 0.00 0.00 0.00 1 1009.8
20260904115019 68 266 0.0 0.0 0.00 0.00 0.00 1 1009.7
20260904114513 68 266 0.0 0.0 0.00 0.00 0.00 1 1009.7
20260904114227 68 266 0.0 0.0 0.00 0.00 0.00 1 1009.7
20260904113500 68 266 0.0 0.0 0.00 0.00 0.00 1 1009.7
20260904112955 68 266 0.0 0.0 0.00 0.00 0.00 1 1009.7
20260904112449 68 266 0.0 0.0 0.00 0.00 0.00 1 1009.6
20260904111944 68 266 0.0 0.0 0.00 0.00 0.00 1 1009.7
20260904111437 67 266 0.0 0.0 0.00 0.00 0.00 1 1009.7
20260904110931 67 266 0.0 0.0 0.00 0.00 0.00 1 1009.6
20260904110424 67 266 0.0 0.0 0.00 0.00 0.00 1 1009.5
20260904105919 68 266 0.0 0.0 0.00 0.00 0.00 1 1009.4
20260904105413 68 266 0.0 0.0 0.00 0.00 0.00 1 1009.4
20260904105350 68 266 0.0 0.0 0.00 0.00 0.00 1 1009.4
20260904104401 68 266 0.0 0.0 0.00 0.00 0.00 1 1009.2
20260904103855 68 266 0.0 0.0 0.00 0.00 0.00 1 1009.2
20260904103349 68 266 0.0 0.0 0.00 0.00 0.00 1 1009.2
20260904103107 68 266 0.0 0.0 0.00 0.00 0.00 1 1009.2
20260904102559 68 266 0.0 0.0 0.00 0.00 0.00 1 1009.3
20260904101832 69 266 0.0 0.0 0.00 0.00 0.00 1 1009.3
20260904101324 69 266 0.0 0.0 0.00 0.00 0.00 1 1009.2
20260904100819 69 266 0.0 0.0 0.00 0.00 0.00 1 1009.2
20260904100313 69 266 0.0 0.0 0.00 0.00 0.00 1 1009.1
20260904100026 69 266 0.0 0.0 0.00 0.00 0.00 1 1009.2
20260904095301 69 266 0.0 0.0 0.00 0.00 0.00 1 1009.2
20260904094754 69 266 0.0 0.0 0.00 0.00 0.00 1 1009.1
20260904094249 69 266 0.0 0.0 0.00 0.00 0.00 1 1009.1
20260904094007 69 266 0.0 0.0 0.00 0.00 0.00 1 1009.0
20260904093243 69 266 0.0 0.0 0.00 0.00 0.00 1 1009.0
20260904092741 69 266 0.0 0.0 0.00 0.00 0.00 1 1008.9
20260904092239 69 266 0.0 0.0 0.00 0.00 0.00 1 1008.9
20260904091738 70 266 0.0 0.0 0.00 0.00 0.00 1 1008.9
20260904091235 70 266 0.0 0.0 0.00 0.00 0.00 1 1008.8
20260904090733 70 266 0.0 0.0 0.00 0.00 0.00 1 1008.7
20260904090231 70 266 0.0 0.0 0.00 0.00 0.00 1 1008.6
20260904085729 70 266 0.0 0.0 0.00 0.00 0.00 1 1008.7
20260904085446 70 266 0.0 0.0 0.00 0.00 0.00 1 1008.5
20260904084725 70 266 0.0 0.0 0.00 0.00 0.00 1 1008.6
20260904084702 71 266 0.0 0.0 0.00 0.00 0.00 1 1008.5
20260904083947 71 266 0.0 0.0 0.00 0.00 0.00 1 1008.6
20260904083222 71 266 0.0 0.0 0.00 0.00 0.00 1 1008.4
20260904082721 71 266 0.0 0.0 0.00 0.00 0.00 1 1008.4
20260904082703 71 266 0.0 0.0 0.00 0.00 0.00 1 1008.4
20260904081719 71 266 0.0 0.0 0.00 0.00 0.00 1 1008.3
20260904081218 71 266 0.0 0.0 0.00 0.00 0.00 1 1008.3
20260904080717 71 266 0.0 0.0 0.00 0.00 0.00 1 1008.2
20260904080217 71 266 0.0 0.0 0.00 0.00 0.00 1 1008.0
20260904075717 71 266 0.0 0.0 0.00 0.00 0.00 1 1008.1
20260904075436 71 266 0.0 0.0 0.00 0.00 0.00 1 1008.3
20260904074713 71 266 0.0 0.0 0.00 0.00 0.00 1 1008.3
20260904074212 71 266 0.0 0.0 0.00 0.00 0.00 1 1008.3
20260904073932 71 266 0.0 0.0 0.00 0.00 0.00 1 1008.3
20260904073214 71 266 0.0 0.0 0.00 0.00 0.00 1 1008.2
20260904072712 71 266 0.0 0.0 0.00 0.00 0.00 1 1008.4
20260904072213 71 266 0.0 0.0 0.00 0.00 0.00 1 1008.1
20260904071712 71 266 0.0 0.0 0.00 0.00 0.00 1 1007.9
20260904071212 71 266 0.0 0.0 0.00 0.00 0.00 1 1008.5
20260904070709 71 266 0.0 0.0 0.00 0.00 0.00 1 1008.5
20260904070209 71 266 0.0 0.0 0.00 0.00 0.00 1 1008.6
20260904065709 71 266 0.0 0.0 0.00 0.00 0.00 1 1008.7
20260904065207 71 266 0.0 0.0 0.00 0.00 0.00 1 1008.9
20260904064707 71 266 1.0 4.0 0.00 0.00 0.00 1 1009.2
20260904064205 71 266 1.0 4.0 0.00 0.00 0.00 1 1009.4
20260904063704 71 279 0.0 2.0 0.00 0.00 0.00 1 1009.7
20260904063203 71 279 0.0 0.0 0.00 0.00 0.00 1 1009.4
20260904062701 71 279 0.0 0.0 0.00 0.00 0.00 1 1009.2
20260904062159 71 279 0.0 0.0 0.00 0.00 0.00 1 1009.2
20260904061700 71 279 0.0 0.0 0.00 0.00 0.00 1 1009.3
20260904061159 71 279 0.0 0.0 0.00 0.00 0.00 1 1009.3
20260904060659 71 279 0.0 0.0 0.00 0.00 0.00 1 1009.3
20260904060157 71 279 0.0 0.0 0.00 0.00 0.00 1 1009.2
20260904055657 71 279 0.0 0.0 0.00 0.00 0.00 1 1009.1
20260904055157 71 279 0.0 0.0 0.00 0.00 0.00 1 1009.0
20260904054657 71 279 0.0 0.0 0.00 0.00 0.00 1 1009.1
20260904054157 71 279 0.0 0.0 0.00 0.00 0.00 1 1009.0
20260904053653 71 279 0.0 0.0 0.00 0.00 0.00 1 1009.1
20260904053153 71 279 0.0 0.0 0.00 0.00 0.00 1 1009.1
20260904052653 71 279 0.0 0.0 0.00 0.00 0.00 1 1009.3
20260904052644 71 279 0.0 0.0 0.00 0.00 0.00 1 1009.3
20260904051653 71 279 0.0 0.0 0.00 0.00 0.00 1 1009.3
20260904051153 71 279 0.0 0.0 0.00 0.00 0.00 1 1009.3
20260904050652 71 279 0.0 0.0 0.00 0.00 0.00 1 1009.4
20260904050153 71 279 0.0 0.0 0.00 0.00 0.00 1 1009.3
20260904045653 71 279 0.0 0.0 0.00 0.00 0.00 1 1009.4
20260904045149 71 279 0.0 0.0 0.00 0.00 0.00 1 1009.3
20260904044904 71 279 0.0 0.0 0.00 0.00 0.00 1 1009.3
20260904044410 71 279 0.0 0.0 0.00 0.00 0.00 1 1009.1
20260904043649 71 279 0.0 0.0 0.00 0.00 0.00 1 1009.3
20260904043149 71 279 0.0 0.0 0.00 0.00 0.00 1 1009.5
20260904042905 71 279 0.0 0.0 0.00 0.00 0.00 1 1009.5
20260904042149 71 279 0.0 0.0 0.00 0.00 0.00 1 1009.5
20260904041649 71 279 0.0 0.0 0.00 0.00 0.00 1 1009.4
20260904041149 71 279 0.0 0.0 0.00 0.00 0.00 1 1009.2
20260904040854 71 279 0.0 0.0 0.00 0.00 0.00 1 1009.4
20260904040738 71 279 0.0 0.0 0.00 0.00 0.00 1 1009.3
20260904035645 71 279 0.0 0.0 0.00 0.00 0.00 1 1009.6
20260904035144 71 279 0.0 0.0 0.00 0.00 0.00 1 1009.7
20260904034644 71 279 0.0 0.0 0.00 0.00 0.00 1 1009.8
20260904034145 71 279 0.0 0.0 0.00 0.00 0.00 1 1009.7
20260904033645 71 279 0.0 0.0 0.00 0.00 0.00 1 1009.8
20260904033145 71 279 0.0 0.0 0.00 0.00 0.00 1 1009.7
20260904032645 71 279 0.0 0.0 0.00 0.00 0.00 1 1009.7
20260904032144 71 279 0.0 0.0 0.00 0.00 0.00 1 1009.7
20260904031645 71 279 0.0 0.0 0.00 0.00 0.00 1 1009.8
20260904031145 71 279 0.0 0.0 0.00 0.00 0.00 1 1009.7
20260904030645 71 279 0.0 0.0 0.00 0.00 0.00 1 1009.7
20260904030145 71 279 0.0 0.0 0.00 0.00 0.00 1 1009.8
20260904025645 72 279 0.0 0.0 0.00 0.00 0.00 1 1009.9
20260904025144 72 279 0.0 0.0 0.00 0.00 0.00 1 1010.1
20260904024644 72 279 0.0 0.0 0.00 0.00 0.00 1 1010.4
20260904024144 72 279 0.0 0.0 0.00 0.00 0.00 1 1010.5
20260904023645 71 279 0.0 0.0 0.00 0.00 0.00 1 1010.5
20260904023145 71 279 0.0 0.0 0.00 0.00 0.00 1 1010.4
20260904022643 72 279 0.0 0.0 0.00 0.00 0.00 1 1010.3
20260904022141 72 279 0.0 0.0 0.00 0.00 0.00 1 1010.1
20260904021639 72 279 0.0 0.0 0.00 0.00 0.00 1 1010.1
20260904021134 72 279 0.0 0.0 0.00 0.00 0.00 1 1010.0
20260904020632 72 279 0.0 0.0 0.00 0.00 0.00 1 1010.0
20260904020132 72 279 0.0 1.0 0.00 0.00 0.00 1 1010.2
20260904015850 72 279 0.0 1.0 0.00 0.00 0.00 1 1010.2
20260904015130 72 279 0.0 0.0 0.00 0.00 0.00 1 1010.4
20260904014630 72 279 0.0 0.0 0.00 0.00 0.00 1 1010.6
20260904014131 73 279 0.0 0.0 0.00 0.00 0.00 1 1010.5
20260904013847 73 279 0.0 0.0 0.00 0.00 0.00 1 1010.4
20260904013129 73 279 0.0 0.0 0.00 0.00 0.00 1 1010.3
20260904012627 73 279 0.0 0.0 0.00 0.00 0.00 1 1010.3
20260904012121 73 279 0.0 0.0 0.00 0.00 0.00 1 1010.2
20260904011613 73 279 0.0 0.0 0.00 0.00 0.00 1 1010.1
20260904011108 73 279 0.0 0.0 0.00 0.00 0.00 1 1010.1
20260904010602 73 279 0.0 0.0 0.00 0.00 0.00 1 1010.2
20260904010056 74 279 0.0 0.0 0.00 0.00 0.00 1 1010.1
20260904005550 74 279 0.0 0.0 0.00 0.00 0.00 1 1010.3
20260904005044 74 279 0.0 0.0 0.00 0.00 0.00 1 1010.2
20260904004538 74 279 0.0 0.0 0.00 0.00 0.00 1 1010.1
20260904004032 74 279 0.0 0.0 0.00 0.00 0.00 1 1010.1
20260904003526 74 279 0.0 0.0 0.00 0.00 0.00 1 1010.1
20260904003019 74 279 0.0 2.0 0.00 0.00 0.00 1 1010.0
20260904002514 74 279 0.0 2.0 0.00 0.00 0.00 1 1010.1
20260904002008 75 279 0.0 0.0 0.00 0.00 0.00 1 1010.0
20260904001503 75 279 0.0 1.0 0.00 0.00 0.00 1 1009.9
20260904000956 75 279 0.0 1.0 0.00 0.00 0.00 1 1009.9
20260904000711 76 279 0.0 0.0 0.00 0.00 0.00 1 1009.9
20260903235944 76 279 0.0 1.0 0.00 0.00 0.00 1 1009.7
20260903235438 76 279 0.0 1.0 0.00 0.00 0.00 1 1009.7
20260903234931 77 279 0.0 0.0 0.00 0.00 0.00 1 1009.6
20260903234426 77 279 0.0 0.0 0.00 0.00 0.00 1 1009.9
20260903234137 77 279 0.0 0.0 0.00 0.00 0.00 1 1009.7
20260903233413 78 279 0.0 0.0 0.00 0.00 0.00 1 1009.5
20260903232908 78 279 0.0 0.0 0.00 0.00 0.00 1 1009.4
20260903232402 78 279 0.0 0.0 0.00 0.00 0.00 1 1009.3
20260903231856 79 279 0.0 1.0 0.00 0.00 0.00 1 1009.3
20260903231350 79 279 0.0 1.0 0.00 0.00 0.00 1 1009.3
20260903230843 80 279 0.0 1.0 0.00 0.00 0.00 1 1009.4
20260903230338 80 279 0.0 1.0 0.00 0.00 0.00 1 1009.3
20260903225832 80 279 0.0 0.0 0.00 0.00 0.00 1 1009.3
20260903225326 81 279 0.0 0.0 0.00 0.00 0.00 1 1009.2
20260903224826 81 279 0.0 0.0 0.00 0.00 0.00 1 1009.1
20260903224324 81 279 0.0 0.0 0.00 0.00 0.00 1 1009.1
20260903224308 82 279 0.0 0.0 0.00 0.00 0.00 1 1009.1
20260903223324 82 279 0.0 0.0 0.00 0.00 0.00 1 1009.4
20260903222822 82 279 0.0 0.0 0.00 0.00 0.00 1 1009.4
20260903222320 82 279 0.0 0.0 0.00 0.00 0.00 1 1009.5
20260903221818 83 279 0.0 1.0 0.00 0.00 0.00 1 1009.3
20260903221317 83 279 0.0 2.0 0.00 0.00 0.00 1 1009.1
20260903220816 83 279 0.0 2.0 0.00 0.00 0.00 1 1009.1
20260903220316 83 279 0.0 0.0 0.00 0.00 0.00 1 1009.3